Time,TemperatureF,DewpointF,PressureIn,WindDirection,WindDirectionDegrees,WindSpeedMPH,WindSpeedGustMPH,Humidity,HourlyPrecipIn,Conditions,Clouds,dailyrainin,SolarRadiationWatts/m^2,SoftwareType,DateUTC
2013-11-02 00:00:00,56.0,46.7,30.05,NNE,33,0.0,0.0,71,0.00,,,0.00,0,Wunderground v.1.15,2013-11-02 07:00:00,
2013-11-02 00:10:00,55.4,46.5,30.04,NNE,31,0.0,0.0,72,0.00,,,0.00,0,Wunderground v.1.15,2013-11-02 07:10:00,
2013-11-02 00:20:00,55.3,46.8,30.04,NNE,33,0.0,0.0,73,0.00,,,0.00,0,Wunderground v.1.15,2013-11-02 07:20:00,
2013-11-02 00:30:00,55.1,46.6,30.05,NNE,33,0.0,0.0,73,0.00,,,0.00,0,Wunderground v.1.15,2013-11-02 07:30:00,
2013-11-02 00:35:00,55.0,46.5,30.04,NNE,33,0.0,0.0,73,0.00,,,0.00,0,Wunderground v.1.15,2013-11-02 07:35:00,
2013-11-02 00:45:00,55.0,46.9,30.05,NNE,33,0.0,0.0,74,0.00,,,0.00,0,Wunderground v.1.15,2013-11-02 07:45:00,
2013-11-02 00:55:00,54.7,46.6,30.05,NNE,32,0.0,0.0,74,0.00,,,0.00,0,Wunderground v.1.15,2013-11-02 07:55:00,
2013-11-02 01:05:00,54.4,46.3,30.05,NNE,31,0.0,0.0,74,0.00,,,0.00,0,Wunderground v.1.15,2013-11-02 08:05:00,
2013-11-02 01:10:00,54.3,46.2,30.05,NNE,33,0.0,0.0,74,0.00,,,0.00,0,Wunderground v.1.15,2013-11-02 08:10:00,
2013-11-02 01:15:00,54.3,46.5,30.05,NNE,31,0.0,0.0,75,0.00,,,0.00,0,Wunderground v.1.15,2013-11-02 08:15:00,
2013-11-02 01:25:00,54.6,47.2,30.05,NNE,32,0.0,0.0,76,0.00,,,0.00,0,Wunderground v.1.15,2013-11-02 08:25:00,
2013-11-02 01:30:00,55.0,47.9,30.05,NNE,33,0.0,0.0,77,0.00,,,0.00,0,Wunderground v.1.15,2013-11-02 08:30:00,
2013-11-02 01:40:00,55.4,48.3,30.05,NNE,33,0.0,0.0,77,0.00,,,0.00,0,Wunderground v.1.15,2013-11-02 08:40:00,
2013-11-02 01:45:00,55.4,48.3,30.05,NNE,32,0.0,0.0,77,0.00,,,0.00,0,Wunderground v.1.15,2013-11-02 08:45:00,
2013-11-02 01:55:00,55.6,48.8,30.05,NNE,31,0.0,0.0,78,0.00,,,0.00,0,Wunderground v.1.15,2013-11-02 08:55:00,
2013-11-02 02:00:00,55.8,49.0,30.05,NNE,33,0.0,0.0,78,0.00,,,0.00,0,Wunderground v.1.15,2013-11-02 09:00:00,
2013-11-02 02:10:00,55.4,48.3,30.05,NNE,32,0.0,0.0,77,0.00,,,0.00,0,Wunderground v.1.15,2013-11-02 09:10:00,
2013-11-02 02:20:00,54.6,47.5,30.05,NNE,33,0.0,0.0,77,0.00,,,0.00,0,Wunderground v.1.15,2013-11-02 09:20:00,
2013-11-02 02:30:00,54.0,47.0,30.04,NNE,32,0.0,0.0,77,0.00,,,0.00,0,Wunderground v.1.15,2013-11-02 09:30:00,
2013-11-02 02:35:00,54.0,47.3,30.04,NNE,32,0.0,0.0,78,0.00,,,0.00,0,Wunderground v.1.15,2013-11-02 09:35:00,
2013-11-02 02:40:00,53.9,47.2,30.04,NNE,33,0.0,0.0,78,0.00,,,0.00,0,Wunderground v.1.15,2013-11-02 09:40:00,
2013-11-02 02:45:00,53.5,46.5,30.05,NNE,32,0.0,2.0,77,0.00,,,0.00,0,Wunderground v.1.15,2013-11-02 09:45:00,
2013-11-02 02:55:00,53.1,46.4,30.04,NNE,33,0.0,1.0,78,0.00,,,0.00,0,Wunderground v.1.15,2013-11-02 09:55:00,
2013-11-02 03:05:00,53.5,47.1,30.04,NNE,32,0.0,0.0,79,0.00,,,0.00,0,Wunderground v.1.15,2013-11-02 10:05:00,
2013-11-02 03:10:00,53.5,47.1,30.04,NNE,33,0.0,0.0,79,0.00,,,0.00,0,Wunderground v.1.15,2013-11-02 10:10:00,
2013-11-02 03:20:00,52.7,46.0,30.04,NNE,32,0.0,0.0,78,0.00,,,0.00,0,Wunderground v.1.15,2013-11-02 10:20:00,
2013-11-02 03:25:00,52.4,45.7,30.04,NNE,33,0.0,0.0,78,0.00,,,0.00,0,Wunderground v.1.15,2013-11-02 10:25:00,
2013-11-02 03:35:00,52.8,46.8,30.04,NNE,33,0.0,0.0,80,0.00,,,0.00,0,Wunderground v.1.15,2013-11-02 10:35:00,
2013-11-02 03:45:00,52.4,46.1,30.04,NNE,33,0.0,0.0,79,0.00,,,0.00,0,Wunderground v.1.15,2013-11-02 10:45:00,
2013-11-02 03:50:00,52.5,46.5,30.04,NNE,33,0.0,0.0,80,0.00,,,0.00,0,Wunderground v.1.15,2013-11-02 10:50:00,
2013-11-02 04:00:00,51.9,45.6,30.05,North,7,3.0,3.0,79,0.00,,,0.00,0,Wunderground v.1.15,2013-11-02 11:00:00,
2013-11-02 04:05:00,51.8,45.5,30.04,North,8,4.0,4.0,79,0.00,,,0.00,0,Wunderground v.1.15,2013-11-02 11:05:00,
2013-11-02 04:15:00,51.9,45.6,30.04,North,8,0.0,1.0,79,0.00,,,0.00,0,Wunderground v.1.15,2013-11-02 11:15:00,
2013-11-02 04:20:00,51.7,45.4,30.04,North,8,0.0,0.0,79,0.00,,,0.00,0,Wunderground v.1.15,2013-11-02 11:20:00,
2013-11-02 04:30:00,51.8,45.8,30.03,North,8,0.0,0.0,80,0.00,,,0.00,0,Wunderground v.1.15,2013-11-02 11:30:00,
2013-11-02 04:40:00,52.3,47.0,30.03,North,7,0.0,0.0,82,0.00,,,0.00,0,Wunderground v.1.15,2013-11-02 11:40:00,
2013-11-02 04:45:00,52.8,47.8,30.03,North,7,0.0,0.0,83,0.00,,,0.00,0,Wunderground v.1.15,2013-11-02 11:45:00,
2013-11-02 04:55:00,53.2,48.5,30.04,North,8,1.0,2.0,84,0.00,,,0.00,0,Wunderground v.1.15,2013-11-02 11:55:00,
2013-11-02 05:05:00,53.7,49.6,30.04,North,8,0.0,2.0,86,0.00,,,0.00,0,Wunderground v.1.15,2013-11-02 12:05:00,
2013-11-02 05:15:00,54.9,51.4,30.04,WNW,286,3.0,3.0,88,0.00,,,0.00,0,Wunderground v.1.15,2013-11-02 12:15:00,
2013-11-02 05:25:00,54.6,51.7,30.04,WSW,249,3.0,3.0,90,0.00,,,0.00,0,Wunderground v.1.15,2013-11-02 12:25:00,
2013-11-02 05:35:00,54.2,51.6,30.04,WSW,237,4.0,4.0,91,0.00,,,0.00,0,Wunderground v.1.15,2013-11-02 12:35:00,
2013-11-02 05:40:00,54.2,51.6,30.04,WSW,242,4.0,4.0,91,0.00,,,0.00,0,Wunderground v.1.15,2013-11-02 12:40:00,
2013-11-02 05:45:00,54.2,51.9,30.04,WSW,247,4.0,4.0,92,0.00,,,0.00,0,Wunderground v.1.15,2013-11-02 12:45:00,
2013-11-02 05:55:00,54.1,51.8,30.04,WSW,248,3.0,5.0,92,0.00,,,0.00,0,Wunderground v.1.15,2013-11-02 12:55:00,
2013-11-02 06:05:00,54.0,52.0,30.04,WSW,249,4.0,6.0,93,0.00,,,0.00,0,Wunderground v.1.15,2013-11-02 13:05:00,
2013-11-02 06:10:00,53.9,51.9,30.05,WSW,249,4.0,4.0,93,0.00,,,0.00,0,Wunderground v.1.15,2013-11-02 13:10:00,
2013-11-02 06:20:00,53.7,51.7,30.05,WSW,249,2.0,2.0,93,0.00,,,0.00,0,Wunderground v.1.15,2013-11-02 13:20:00,
2013-11-02 06:25:00,53.7,51.7,30.05,WSW,248,2.0,3.0,93,0.00,,,0.00,0,Wunderground v.1.15,2013-11-02 13:25:00,
2013-11-02 06:35:00,53.8,51.8,30.05,WSW,243,2.0,4.0,93,0.00,,,0.00,0,Wunderground v.1.15,2013-11-02 13:35:00,
2013-11-02 06:45:00,54.0,52.3,30.05,WSW,244,1.0,2.0,94,0.00,,,0.00,0,Wunderground v.1.15,2013-11-02 13:45:00,
2013-11-02 06:50:00,53.9,51.9,30.05,WSW,239,1.0,2.0,93,0.00,,,0.00,0,Wunderground v.1.15,2013-11-02 13:50:00,
2013-11-02 07:00:00,53.7,52.0,30.05,WSW,243,3.0,4.0,94,0.00,,,0.00,0,Wunderground v.1.15,2013-11-02 14:00:00,
2013-11-02 07:10:00,53.6,51.9,30.05,WSW,246,3.0,3.0,94,0.00,,,0.00,0,Wunderground v.1.15,2013-11-02 14:10:00,
2013-11-02 07:15:00,53.6,51.9,30.06,WSW,246,1.0,3.0,94,0.00,,,0.00,0,Wunderground v.1.15,2013-11-02 14:15:00,
2013-11-02 07:25:00,53.4,51.7,30.05,WSW,245,0.0,0.0,94,0.00,,,0.00,0,Wunderground v.1.15,2013-11-02 14:25:00,
2013-11-02 07:30:00,53.3,51.3,30.06,WSW,246,0.0,0.0,93,0.00,,,0.00,0,Wunderground v.1.15,2013-11-02 14:30:00,
2013-11-02 07:35:00,53.1,51.1,30.05,WSW,246,0.0,0.0,93,0.00,,,0.00,0,Wunderground v.1.15,2013-11-02 14:35:00,
2013-11-02 07:45:00,53.2,51.5,30.05,SW,218,2.0,6.0,94,0.00,,,0.00,7,Wunderground v.1.15,2013-11-02 14:45:00,
2013-11-02 07:55:00,53.2,51.5,30.06,SW,222,2.0,2.0,94,0.00,,,0.00,14,Wunderground v.1.15,2013-11-02 14:55:00,
2013-11-02 08:05:00,53.2,51.5,30.06,SW,218,2.0,2.0,94,0.00,,,0.00,21,Wunderground v.1.15,2013-11-02 15:05:00,
2013-11-02 08:10:00,53.2,51.5,30.06,SW,227,1.0,3.0,94,0.00,,,0.00,23,Wunderground v.1.15,2013-11-02 15:10:00,
2013-11-02 08:20:00,53.3,51.6,30.06,SW,218,3.0,3.0,94,0.00,,,0.00,26,Wunderground v.1.15,2013-11-02 15:20:00,
2013-11-02 08:25:00,53.3,51.6,30.06,SW,218,3.0,3.0,94,0.00,,,0.00,30,Wunderground v.1.15,2013-11-02 15:25:00,
2013-11-02 08:30:00,53.3,51.6,30.06,SW,226,2.0,2.0,94,0.00,,,0.00,33,Wunderground v.1.15,2013-11-02 15:30:00,
2013-11-02 08:40:00,53.2,51.5,30.06,SSE,168,5.0,5.0,94,0.00,,,0.00,54,Wunderground v.1.15,2013-11-02 15:40:00,
2013-11-02 08:50:00,53.2,51.5,30.06,SSE,166,3.0,5.0,94,0.00,,,0.00,81,Wunderground v.1.15,2013-11-02 15:50:00,
2013-11-02 08:55:00,53.2,51.5,30.05,SSW,213,4.0,7.0,94,0.00,,,0.00,90,Wunderground v.1.15,2013-11-02 15:55:00,
2013-11-02 09:05:00,52.4,50.7,30.05,South,174,8.0,8.0,94,0.00,,,0.00,97,Wunderground v.1.15,2013-11-02 16:05:00,
2013-11-02 09:15:00,52.4,51.0,30.05,South,172,9.0,9.0,95,0.00,,,0.00,176,Wunderground v.1.15,2013-11-02 16:15:00,
2013-11-02 09:20:00,52.4,51.0,30.05,South,181,7.0,7.0,95,0.00,,,0.00,190,Wunderground v.1.15,2013-11-02 16:20:00,
2013-11-02 09:30:00,52.8,51.4,30.06,SSW,213,5.0,5.0,95,0.00,,,0.00,142,Wunderground v.1.15,2013-11-02 16:30:00,
2013-11-02 09:35:00,52.6,51.2,30.06,WSW,246,4.0,5.0,95,0.00,,,0.00,134,Wunderground v.1.15,2013-11-02 16:35:00,
2013-11-02 09:45:00,52.7,51.3,30.05,SW,224,5.0,6.0,95,0.00,,,0.00,343,Wunderground v.1.15,2013-11-02 16:45:00,
2013-11-02 09:55:00,53.6,52.2,30.06,SSW,213,5.0,6.0,95,0.00,,,0.00,339,Wunderground v.1.15,2013-11-02 16:55:00,
2013-11-02 10:00:00,53.9,52.2,30.05,SSW,213,6.0,7.0,94,0.00,,,0.00,352,Wunderground v.1.15,2013-11-02 17:00:00,
2013-11-02 10:10:00,54.0,52.0,30.06,SSW,213,7.0,7.0,93,0.00,,,0.00,374,Wunderground v.1.15,2013-11-02 17:10:00,
2013-11-02 10:20:00,54.2,52.2,30.05,SSW,213,7.0,7.0,93,0.00,,,0.00,403,Wunderground v.1.15,2013-11-02 17:20:00,
2013-11-02 10:30:00,55.2,52.9,30.05,SSW,213,6.0,6.0,92,0.00,,,0.00,427,Wunderground v.1.15,2013-11-02 17:30:00,
2013-11-02 10:40:00,55.1,52.5,30.05,SW,232,7.0,7.0,91,0.00,,,0.00,454,Wunderground v.1.15,2013-11-02 17:40:00,
2013-11-02 10:50:00,55.3,52.7,30.05,SW,222,6.0,10.0,91,0.00,,,0.00,482,Wunderground v.1.15,2013-11-02 17:50:00,
2013-11-02 10:55:00,55.1,52.5,30.05,SW,218,7.0,10.0,91,0.00,,,0.00,496,Wunderground v.1.15,2013-11-02 17:55:00,
2013-11-02 11:05:00,55.3,52.4,30.05,SSW,204,7.0,7.0,90,0.00,,,0.00,504,Wunderground v.1.15,2013-11-02 18:05:00,
2013-11-02 11:10:00,55.1,52.2,30.05,SSW,213,8.0,10.0,90,0.00,,,0.00,485,Wunderground v.1.15,2013-11-02 18:10:00,
2013-11-02 11:20:00,54.4,51.5,30.04,SSW,213,9.0,9.0,90,0.00,,,0.00,422,Wunderground v.1.15,2013-11-02 18:20:00,
2013-11-02 11:30:00,54.2,51.6,30.04,SSW,213,8.0,8.0,91,0.00,,,0.00,563,Wunderground v.1.15,2013-11-02 18:30:00,
2013-11-02 11:40:00,54.6,52.0,30.03,SSW,213,7.0,9.0,91,0.00,,,0.00,545,Wunderground v.1.15,2013-11-02 18:40:00,
2013-11-02 11:45:00,54.6,52.0,30.03,SW,231,6.0,9.0,91,0.00,,,0.00,520,Wunderground v.1.15,2013-11-02 18:45:00,
2013-11-02 11:55:00,55.0,52.1,30.03,WSW,245,6.0,6.0,90,0.00,,,0.00,617,Wunderground v.1.15,2013-11-02 18:55:00,
2013-11-02 12:00:00,54.0,51.1,30.04,WSW,255,7.0,7.0,90,0.00,,,0.00,464,Wunderground v.1.15,2013-11-02 19:00:00,
2013-11-02 12:05:00,54.0,51.4,30.03,WSW,237,7.0,7.0,91,0.00,,,0.00,494,Wunderground v.1.15,2013-11-02 19:05:00,
2013-11-02 12:15:00,54.0,51.4,30.03,WSW,237,8.0,8.0,91,0.00,,,0.00,408,Wunderground v.1.15,2013-11-02 19:15:00,
2013-11-02 12:20:00,54.7,52.4,30.02,WSW,241,7.0,7.0,92,0.00,,,0.00,555,Wunderground v.1.15,2013-11-02 19:20:00,
2013-11-02 12:25:00,55.0,52.1,30.02,SW,227,6.0,7.0,90,0.00,,,0.00,464,Wunderground v.1.15,2013-11-02 19:25:00,
2013-11-02 12:35:00,55.4,52.5,30.02,SW,236,6.0,8.0,90,0.00,,,0.00,617,Wunderground v.1.15,2013-11-02 19:35:00,
2013-11-02 12:40:00,55.8,52.9,30.01,SW,232,6.0,6.0,90,0.00,,,0.00,599,Wunderground v.1.15,2013-11-02 19:40:00,
2013-11-02 12:45:00,56.0,53.1,30.01,WSW,258,6.0,7.0,90,0.00,,,0.00,582,Wunderground v.1.15,2013-11-02 19:45:00,
2013-11-02 12:50:00,56.1,52.9,30.01,WSW,247,6.0,6.0,89,0.00,,,0.00,497,Wunderground v.1.15,2013-11-02 19:50:00,
2013-11-02 13:00:00,56.2,52.7,30.00,SW,233,7.0,7.0,88,0.00,,,0.00,615,Wunderground v.1.15,2013-11-02 20:00:00,
2013-11-02 13:10:00,56.3,52.8,30.00,WSW,242,8.0,8.0,88,0.00,,,0.00,545,Wunderground v.1.15,2013-11-02 20:10:00,
2013-11-02 13:15:00,56.3,52.8,30.00,SW,218,8.0,11.0,88,0.00,,,0.00,432,Wunderground v.1.15,2013-11-02 20:15:00,
2013-11-02 13:20:00,56.4,52.9,30.00,SW,235,8.0,8.0,88,0.00,,,0.00,517,Wunderground v.1.15,2013-11-02 20:20:00,
2013-11-02 13:25:00,56.5,53.0,29.99,SW,218,8.0,8.0,88,0.00,,,0.00,541,Wunderground v.1.15,2013-11-02 20:25:00,
2013-11-02 13:30:00,56.6,53.4,29.99,SW,232,8.0,9.0,89,0.00,,,0.00,629,Wunderground v.1.15,2013-11-02 20:30:00,
2013-11-02 13:40:00,56.6,53.1,29.99,SW,228,9.0,10.0,88,0.00,,,0.00,471,Wunderground v.1.15,2013-11-02 20:40:00,
2013-11-02 13:45:00,56.6,53.1,29.99,SSW,213,8.0,10.0,88,0.00,,,0.00,619,Wunderground v.1.15,2013-11-02 20:45:00,
2013-11-02 13:50:00,56.6,53.1,29.98,SW,218,8.0,8.0,88,0.00,,,0.00,346,Wunderground v.1.15,2013-11-02 20:50:00,
2013-11-02 13:55:00,56.6,53.4,29.98,SW,218,8.0,10.0,89,0.00,,,0.00,301,Wunderground v.1.15,2013-11-02 20:55:00,
2013-11-02 14:05:00,56.9,53.7,29.98,SW,234,7.0,8.0,89,0.00,,,0.00,540,Wunderground v.1.15,2013-11-02 21:05:00,
2013-11-02 14:10:00,56.8,53.3,29.97,SSW,213,8.0,8.0,88,0.00,,,0.00,520,Wunderground v.1.15,2013-11-02 21:10:00,
2013-11-02 14:15:00,56.9,53.4,29.97,SSW,213,9.0,9.0,88,0.00,,,0.00,517,Wunderground v.1.15,2013-11-02 21:15:00,
2013-11-02 14:25:00,56.9,53.4,29.97,SW,232,7.0,8.0,88,0.00,,,0.00,587,Wunderground v.1.15,2013-11-02 21:25:00,
2013-11-02 14:30:00,57.1,53.6,29.97,SW,232,8.0,8.0,88,0.00,,,0.00,364,Wunderground v.1.15,2013-11-02 21:30:00,
2013-11-02 14:40:00,57.4,53.9,29.97,SW,224,9.0,9.0,88,0.00,,,0.00,420,Wunderground v.1.15,2013-11-02 21:40:00,
2013-11-02 14:45:00,57.4,53.9,29.96,SSW,213,8.0,9.0,88,0.00,,,0.00,527,Wunderground v.1.15,2013-11-02 21:45:00,
2013-11-02 14:55:00,57.4,53.9,29.96,SW,218,9.0,11.0,88,0.00,,,0.00,329,Wunderground v.1.15,2013-11-02 21:55:00,
2013-11-02 15:00:00,57.7,54.5,29.96,SSW,213,9.0,9.0,89,0.00,,,0.00,385,Wunderground v.1.15,2013-11-02 22:00:00,
2013-11-02 15:06:00,58.0,54.8,29.96,SSW,213,9.0,9.0,89,0.00,,,0.00,385,Wunderground v.1.15,2013-11-02 22:06:00,
2013-11-02 15:15:00,57.9,54.7,29.96,SSW,213,9.0,11.0,89,0.00,,,0.00,295,Wunderground v.1.15,2013-11-02 22:15:00,
2013-11-02 15:20:00,57.8,54.9,29.96,SSW,213,11.0,12.0,90,0.00,,,0.00,285,Wunderground v.1.15,2013-11-02 22:20:00,
2013-11-02 15:30:00,57.3,54.7,29.96,SSW,213,14.0,14.0,91,0.00,,,0.00,287,Wunderground v.1.15,2013-11-02 22:30:00,
2013-11-02 15:40:00,57.4,54.8,29.96,SSW,201,12.0,12.0,91,0.00,,,0.00,262,Wunderground v.1.15,2013-11-02 22:40:00,
2013-11-02 15:45:00,57.7,55.1,29.96,SSW,213,10.0,12.0,91,0.00,,,0.00,246,Wunderground v.1.15,2013-11-02 22:45:00,
2013-11-02 15:55:00,58.1,55.2,29.96,SSW,196,8.0,8.0,90,0.00,,,0.00,169,Wunderground v.1.15,2013-11-02 22:55:00,
2013-11-02 16:00:00,58.1,55.2,29.96,SSW,213,8.0,8.0,90,0.00,,,0.00,153,Wunderground v.1.15,2013-11-02 23:00:00,
2013-11-02 16:10:00,58.4,55.5,29.95,South,182,8.0,9.0,90,0.00,,,0.00,364,Wunderground v.1.15,2013-11-02 23:10:00,
2013-11-02 16:15:00,58.9,55.7,29.95,SSW,193,8.0,9.0,89,0.00,,,0.00,204,Wunderground v.1.15,2013-11-02 23:15:00,
2013-11-02 16:20:00,59.1,55.9,29.95,SSW,197,7.0,7.0,89,0.00,,,0.00,297,Wunderground v.1.15,2013-11-02 23:20:00,
2013-11-02 16:30:00,59.1,55.9,29.94,SSW,197,10.0,10.0,89,0.00,,,0.00,292,Wunderground v.1.15,2013-11-02 23:30:00,
2013-11-02 16:40:00,59.0,55.8,29.94,South,188,8.0,9.0,89,0.00,,,0.00,218,Wunderground v.1.15,2013-11-02 23:40:00,
2013-11-02 16:46:00,59.0,55.8,29.94,SSW,193,9.0,9.0,89,0.00,,,0.00,200,Wunderground v.1.15,2013-11-02 23:46:00,
2013-11-02 16:55:00,59.2,56.0,29.94,SSW,213,8.0,8.0,89,0.00,,,0.00,197,Wunderground v.1.15,2013-11-02 23:55:00,
2013-11-02 17:05:00,59.4,56.2,29.94,SSW,200,8.0,9.0,89,0.00,,,0.00,153,Wunderground v.1.15,2013-11-03 00:05:00,
2013-11-02 17:10:00,59.4,56.2,29.93,SSW,213,9.0,9.0,89,0.00,,,0.00,132,Wunderground v.1.15,2013-11-03 00:10:00,
2013-11-02 17:20:00,59.5,56.3,29.93,SSW,213,7.0,8.0,89,0.00,,,0.00,95,Wunderground v.1.15,2013-11-03 00:20:00,
2013-11-02 17:25:00,59.4,56.2,29.93,SSW,213,8.0,8.0,89,0.00,,,0.00,83,Wunderground v.1.15,2013-11-03 00:25:00,
2013-11-02 17:30:00,59.4,56.2,29.93,SSW,193,9.0,9.0,89,0.00,,,0.00,67,Wunderground v.1.15,2013-11-03 00:30:00,
2013-11-02 17:40:00,59.3,56.4,29.93,SSW,213,7.0,7.0,90,0.00,,,0.00,40,Wunderground v.1.15,2013-11-03 00:40:00,
2013-11-02 17:50:00,60.1,56.2,29.92,WSW,253,5.0,6.0,87,0.00,,,0.00,21,Wunderground v.1.15,2013-11-03 00:50:00,
2013-11-02 17:55:00,60.5,56.0,29.92,WSW,249,5.0,6.0,85,0.00,,,0.00,14,Wunderground v.1.15,2013-11-03 00:55:00,
2013-11-02 18:05:00,60.5,55.6,29.93,SW,230,4.0,4.0,84,0.00,,,0.00,7,Wunderground v.1.15,2013-11-03 01:05:00,
2013-11-02 18:15:00,60.1,55.2,29.93,SW,228,2.0,2.0,84,0.00,,,0.00,0,Wunderground v.1.15,2013-11-03 01:15:00,
2013-11-02 18:25:00,59.5,54.3,29.93,SW,229,1.0,1.0,83,0.00,,,0.00,0,Wunderground v.1.15,2013-11-03 01:25:00,
2013-11-02 18:30:00,59.5,54.3,29.93,SW,228,0.0,1.0,83,0.00,,,0.00,0,Wunderground v.1.15,2013-11-03 01:30:00,
2013-11-02 18:35:00,59.6,54.1,29.93,SW,229,0.0,0.0,82,0.00,,,0.00,0,Wunderground v.1.15,2013-11-03 01:35:00,
2013-11-02 18:40:00,59.6,53.4,29.93,SW,229,0.0,1.0,80,0.00,,,0.00,0,Wunderground v.1.15,2013-11-03 01:40:00,
2013-11-02 18:45:00,60.0,53.5,29.92,SW,228,1.0,2.0,79,0.00,,,0.00,0,Wunderground v.1.15,2013-11-03 01:45:00,
2013-11-02 18:55:00,60.4,53.5,29.93,SE,145,2.0,3.0,78,0.00,,,0.00,0,Wunderground v.1.15,2013-11-03 01:55:00,
2013-11-02 19:01:00,60.2,54.0,29.93,SE,145,2.0,2.0,80,0.00,,,0.00,0,Wunderground v.1.15,2013-11-03 02:01:00,
2013-11-02 19:10:00,59.8,54.0,29.93,SE,145,0.0,2.0,81,0.00,,,0.00,0,Wunderground v.1.15,2013-11-03 02:10:00,
2013-11-02 19:15:00,59.4,53.9,29.93,SE,144,2.0,5.0,82,0.00,,,0.00,0,Wunderground v.1.15,2013-11-03 02:15:00,
2013-11-02 19:25:00,58.7,54.2,29.94,SSE,157,5.0,5.0,85,0.00,,,0.00,0,Wunderground v.1.15,2013-11-03 02:25:00,
2013-11-02 19:30:00,58.8,54.3,29.93,SSE,156,4.0,5.0,85,0.00,,,0.00,0,Wunderground v.1.15,2013-11-03 02:30:00,
2013-11-02 19:40:00,59.0,54.8,29.94,South,170,4.0,5.0,86,0.00,,,0.00,0,Wunderground v.1.15,2013-11-03 02:40:00,
2013-11-02 19:45:00,58.6,54.4,29.94,South,172,5.0,5.0,86,0.00,,,0.00,0,Wunderground v.1.15,2013-11-03 02:45:00,
2013-11-02 19:55:00,58.3,54.1,29.94,SSW,201,4.0,4.0,86,0.00,,,0.00,0,Wunderground v.1.15,2013-11-03 02:55:00,
2013-11-02 20:05:00,58.1,53.9,29.94,SSW,201,1.0,2.0,86,0.00,,,0.00,0,Wunderground v.1.15,2013-11-03 03:05:00,
2013-11-02 20:10:00,58.0,54.2,29.94,SSW,201,0.0,0.0,87,0.00,,,0.00,0,Wunderground v.1.15,2013-11-03 03:10:00,
2013-11-02 20:15:00,57.8,54.0,29.95,SSW,201,1.0,2.0,87,0.00,,,0.00,0,Wunderground v.1.15,2013-11-03 03:15:00,
2013-11-02 20:25:00,57.6,53.8,29.95,SSW,201,1.0,2.0,87,0.00,,,0.00,0,Wunderground v.1.15,2013-11-03 03:25:00,
2013-11-02 20:30:00,57.7,53.9,29.95,SSW,201,1.0,4.0,87,0.00,,,0.00,0,Wunderground v.1.15,2013-11-03 03:30:00,
2013-11-02 20:35:00,57.8,53.6,29.95,SSW,200,2.0,4.0,86,0.00,,,0.00,0,Wunderground v.1.15,2013-11-03 03:35:00,
2013-11-02 20:45:00,57.8,54.0,29.95,SSW,201,0.0,1.0,87,0.00,,,0.00,0,Wunderground v.1.15,2013-11-03 03:45:00,
2013-11-02 20:55:00,57.7,53.9,29.95,SSW,201,0.0,0.0,87,0.00,,,0.00,0,Wunderground v.1.15,2013-11-03 03:55:00,
2013-11-02 21:10:00,57.3,53.8,29.96,SSW,201,0.0,0.0,88,0.00,,,0.00,0,Wunderground v.1.15,2013-11-03 04:10:00,
2013-11-02 21:15:00,57.2,53.7,29.96,SSW,200,0.0,0.0,88,0.00,,,0.00,0,Wunderground v.1.15,2013-11-03 04:15:00,
2013-11-02 21:20:00,57.2,54.0,29.96,SSW,200,0.0,0.0,89,0.00,,,0.00,0,Wunderground v.1.15,2013-11-03 04:20:00,
2013-11-02 21:25:00,57.2,53.7,29.96,SSW,213,0.0,4.0,88,0.00,,,0.00,0,Wunderground v.1.15,2013-11-03 04:25:00,
2013-11-02 21:30:00,57.2,53.7,29.96,SSW,200,1.0,1.0,88,0.00,,,0.00,0,Wunderground v.1.15,2013-11-03 04:30:00,
2013-11-02 21:40:00,57.1,53.6,29.96,SSW,200,1.0,1.0,88,0.00,,,0.00,0,Wunderground v.1.15,2013-11-03 04:40:00,
2013-11-02 21:45:00,57.3,54.1,29.97,SSW,201,1.0,3.0,89,0.00,,,0.00,0,Wunderground v.1.15,2013-11-03 04:45:00,
2013-11-02 21:50:00,57.2,54.0,29.97,SSW,200,2.0,2.0,89,0.00,,,0.00,0,Wunderground v.1.15,2013-11-03 04:50:00,
2013-11-02 21:55:00,57.1,53.6,29.97,SSW,201,3.0,4.0,88,0.00,,,0.00,0,Wunderground v.1.15,2013-11-03 04:55:00,
2013-11-02 22:05:00,56.8,53.3,29.97,SSW,199,1.0,4.0,88,0.00,,,0.00,0,Wunderground v.1.15,2013-11-03 05:05:00,
2013-11-02 22:10:00,56.8,53.6,29.97,SSW,201,2.0,2.0,89,0.00,,,0.00,0,Wunderground v.1.15,2013-11-03 05:10:00,
2013-11-02 22:15:00,56.8,53.6,29.98,SSW,200,3.0,3.0,89,0.00,,,0.00,0,Wunderground v.1.15,2013-11-03 05:15:00,
2013-11-02 22:25:00,56.7,53.5,29.98,SSW,201,1.0,3.0,89,0.00,,,0.00,0,Wunderground v.1.15,2013-11-03 05:25:00,
2013-11-02 22:30:00,56.5,53.3,29.98,SSW,201,0.0,0.0,89,0.00,,,0.00,0,Wunderground v.1.15,2013-11-03 05:30:00,
2013-11-02 22:35:00,56.6,53.4,29.98,SSW,200,0.0,2.0,89,0.00,,,0.00,0,Wunderground v.1.15,2013-11-03 05:35:00,
2013-11-02 22:45:00,56.5,53.6,29.98,SSW,200,2.0,2.0,90,0.00,,,0.00,0,Wunderground v.1.15,2013-11-03 05:45:00,
2013-11-02 22:50:00,56.3,53.4,29.98,SSW,201,2.0,2.0,90,0.00,,,0.00,0,Wunderground v.1.15,2013-11-03 05:50:00,
2013-11-02 22:55:00,56.4,53.5,29.99,SSW,201,1.0,2.0,90,0.00,,,0.00,0,Wunderground v.1.15,2013-11-03 05:55:00,
2013-11-02 23:01:00,56.3,53.4,29.99,SSW,199,0.0,0.0,90,0.00,,,0.00,0,Wunderground v.1.15,2013-11-03 06:01:00,
2013-11-02 23:10:00,56.0,52.8,29.99,SSW,200,0.0,0.0,89,0.00,,,0.00,0,Wunderground v.1.15,2013-11-03 06:10:00,
2013-11-02 23:20:00,55.8,52.6,29.99,SSW,200,0.0,0.0,89,0.00,,,0.00,0,Wunderground v.1.15,2013-11-03 06:20:00,
2013-11-02 23:25:00,55.7,52.8,29.99,SSW,200,0.0,0.0,90,0.00,,,0.00,0,Wunderground v.1.15,2013-11-03 06:25:00,
2013-11-02 23:35:00,55.3,52.1,30.00,SSW,200,0.0,0.0,89,0.00,,,0.00,0,Wunderground v.1.15,2013-11-03 06:35:00,
2013-11-02 23:45:00,55.1,52.2,30.00,SSW,201,0.0,0.0,90,0.00,,,0.00,0,Wunderground v.1.15,2013-11-03 06:45:00,
2013-11-02 23:55:00,54.8,51.6,30.00,SSW,199,0.0,0.0,89,0.00,,,0.00,0,Wunderground v.1.15,2013-11-03 06:55:00,